DAL1876 MMSD-KLAX

Flight info

Callsign DAL1876
Flight time N/A
Altitude 34000
Route TAGMO UT50 ASUTA AMMOR OLAAA2
Aircraft A320/M-SDE2E3FGHIRWXY/LB1

Departure

Time N/A
Airport Los Cabos International Airport (MMSD)

Arrival

Time 2026-05-03 22:52
Airport Los Angeles International Airport (KLAX)
Time Latitude Longitude Altitude Speed Heading
2026-05-03 21:46 29.38245 -113.90456 33931 ft 423 kts 325°
2026-05-03 21:46 29.40912 -113.91831 33927 ft 425 kts 325°
2026-05-03 21:47 29.46352 -113.94639 33920 ft 426 kts 325°
2026-05-03 21:47 29.51731 -113.97413 33915 ft 424 kts 325°
2026-05-03 21:48 29.57125 -114.00202 33907 ft 426 kts 325°
2026-05-03 21:48 29.62492 -114.02980 33902 ft 426 kts 325°
2026-05-03 21:49 29.66071 -114.04834 33900 ft 426 kts 324°
2026-05-03 21:49 29.71202 -114.07494 33899 ft 426 kts 324°
2026-05-03 21:50 29.76584 -114.10287 33889 ft 426 kts 324°
2026-05-03 21:50 29.82006 -114.13105 33886 ft 426 kts 324°
2026-05-03 21:51 29.87391 -114.15906 33882 ft 426 kts 324°
2026-05-03 21:51 29.92783 -114.18715 33872 ft 426 kts 324°
2026-05-03 21:52 29.98215 -114.21548 33866 ft 426 kts 324°
2026-05-03 21:52 30.03620 -114.24371 33867 ft 427 kts 324°
2026-05-03 21:53 30.08993 -114.27181 33863 ft 427 kts 324°
2026-05-03 21:53 30.14410 -114.30017 33862 ft 427 kts 324°
2026-05-03 21:54 30.19841 -114.32863 33852 ft 427 kts 324°
2026-05-03 21:54 30.25230 -114.35690 33857 ft 428 kts 324°
2026-05-03 21:55 30.30664 -114.38545 33855 ft 428 kts 324°
2026-05-03 21:55 30.36063 -114.41385 33850 ft 428 kts 323°
2026-05-03 21:56 30.41502 -114.44249 33843 ft 428 kts 323°
2026-05-03 21:56 30.46897 -114.47094 33837 ft 428 kts 323°
2026-05-03 21:57 30.52331 -114.49961 33825 ft 428 kts 323°
2026-05-03 21:57 30.57699 -114.52796 33824 ft 428 kts 323°
2026-05-03 21:58 30.63147 -114.55677 33821 ft 427 kts 323°
2026-05-03 21:58 30.68549 -114.58539 33818 ft 427 kts 323°
2026-05-03 21:59 30.73944 -114.61403 33791 ft 427 kts 323°
2026-05-03 21:59 30.79398 -114.64301 33786 ft 427 kts 323°
2026-05-03 22:00 30.84765 -114.67157 33787 ft 427 kts 322°
2026-05-03 22:00 30.90177 -114.70043 33792 ft 429 kts 322°
2026-05-03 22:01 30.95605 -114.72935 33796 ft 428 kts 322°
2026-05-03 22:01 31.00986 -114.75807 33787 ft 427 kts 322°
2026-05-03 22:02 31.06397 -114.78699 33792 ft 427 kts 322°
2026-05-03 22:02 31.11769 -114.81574 33791 ft 425 kts 322°
2026-05-03 22:03 31.17140 -114.84452 33784 ft 423 kts 322°
2026-05-03 22:03 31.22496 -114.87326 33791 ft 422 kts 322°
2026-05-03 22:04 31.27792 -114.90172 33795 ft 420 kts 322°
2026-05-03 22:04 31.33111 -114.93035 33808 ft 419 kts 322°
2026-05-03 22:05 31.38379 -114.95872 33810 ft 417 kts 322°
2026-05-03 22:05 31.43641 -114.98710 33815 ft 415 kts 322°
2026-05-03 22:06 31.48875 -115.01537 33809 ft 414 kts 322°
2026-05-03 22:06 31.54109 -115.04367 33807 ft 412 kts 322°
2026-05-03 22:07 31.59294 -115.07174 33802 ft 411 kts 322°
2026-05-03 22:07 31.64451 -115.09969 33804 ft 409 kts 322°
2026-05-03 22:08 31.69621 -115.12775 33795 ft 408 kts 322°
2026-05-03 22:08 31.74774 -115.15575 33787 ft 407 kts 322°
2026-05-03 22:09 31.79915 -115.18375 33809 ft 411 kts 322°
2026-05-03 22:10 31.87705 -115.22615 33802 ft 410 kts 322°
2026-05-03 22:10 31.92859 -115.25428 33796 ft 410 kts 322°
2026-05-03 22:11 31.98048 -115.28264 33791 ft 411 kts 322°
2026-05-03 22:11 32.03213 -115.31090 33795 ft 412 kts 322°
2026-05-03 22:12 32.08438 -115.33953 33801 ft 413 kts 322°
2026-05-03 22:12 32.13622 -115.36793 33788 ft 412 kts 322°
2026-05-03 22:13 32.18840 -115.39659 33784 ft 413 kts 322°
2026-05-03 22:13 32.24040 -115.42520 33786 ft 413 kts 322°
2026-05-03 22:14 32.28399 -115.44921 33787 ft 414 kts 322°
2026-05-03 22:14 32.33607 -115.47790 33796 ft 415 kts 322°
2026-05-03 22:15 32.38856 -115.50686 33792 ft 416 kts 322°
2026-05-03 22:15 32.44095 -115.53579 33796 ft 417 kts 322°
2026-05-03 22:16 32.49379 -115.56499 33792 ft 418 kts 322°
2026-05-03 22:16 32.54623 -115.59399 33803 ft 418 kts 322°
2026-05-03 22:17 32.59909 -115.62331 33799 ft 419 kts 322°
2026-05-03 22:17 32.62434 -115.63975 33799 ft 407 kts 315°
2026-05-03 22:17 32.64625 -115.65947 33797 ft 396 kts 308°
2026-05-03 22:18 32.68150 -115.70781 33793 ft 379 kts 294°
2026-05-03 22:18 32.70921 -115.76068 33796 ft 379 kts 294°
2026-05-03 22:19 32.73735 -115.81386 33804 ft 380 kts 294°
2026-05-03 22:19 32.76532 -115.86690 33814 ft 380 kts 294°
2026-05-03 22:20 32.79342 -115.92035 33829 ft 381 kts 294°
2026-05-03 22:20 32.82115 -115.97387 33826 ft 379 kts 292°
2026-05-03 22:20 32.83450 -116.00062 33626 ft 379 kts 292°
2026-05-03 22:21 32.84789 -116.02758 33370 ft 379 kts 292°
2026-05-03 22:21 32.86145 -116.05486 33122 ft 383 kts 292°
2026-05-03 22:21 32.87510 -116.08226 32881 ft 385 kts 293°
2026-05-03 22:21 32.88865 -116.10939 32648 ft 387 kts 293°
2026-05-03 22:22 32.90250 -116.13710 32384 ft 389 kts 293°
2026-05-03 22:22 32.91643 -116.16496 32134 ft 391 kts 293°
2026-05-03 22:22 32.93040 -116.19293 31893 ft 393 kts 293°
2026-05-03 22:22 32.94425 -116.22069 31651 ft 395 kts 294°
2026-05-03 22:23 32.95834 -116.24897 31411 ft 397 kts 294°
2026-05-03 22:23 32.97239 -116.27716 31171 ft 399 kts 294°
2026-05-03 22:23 32.98660 -116.30572 30952 ft 401 kts 294°
2026-05-03 22:23 33.00087 -116.33442 30713 ft 403 kts 294°
2026-05-03 22:24 33.01521 -116.36326 30480 ft 403 kts 294°
2026-05-03 22:24 33.02937 -116.39175 30255 ft 403 kts 294°
2026-05-03 22:24 33.04353 -116.42051 30012 ft 400 kts 292°
2026-05-03 22:24 33.05583 -116.45018 29577 ft 394 kts 288°
2026-05-03 22:25 33.06671 -116.47953 29001 ft 390 kts 288°
2026-05-03 22:25 33.07773 -116.50904 28463 ft 385 kts 288°
2026-05-03 22:25 33.08864 -116.53814 27905 ft 380 kts 288°
2026-05-03 22:25 33.09924 -116.56646 27397 ft 375 kts 288°
2026-05-03 22:26 33.10983 -116.59475 26876 ft 370 kts 288°
2026-05-03 22:26 33.12023 -116.62261 26364 ft 365 kts 288°
2026-05-03 22:26 33.12948 -116.65061 25860 ft 358 kts 283°
2026-05-03 22:26 33.13605 -116.67857 25381 ft 351 kts 278°
2026-05-03 22:27 33.14048 -116.70713 24887 ft 346 kts 275°
2026-05-03 22:27 33.14453 -116.73533 24374 ft 344 kts 276°
2026-05-03 22:27 33.14868 -116.76348 23911 ft 342 kts 276°
2026-05-03 22:27 33.15283 -116.79167 23468 ft 359 kts 276°
2026-05-03 22:28 33.15717 -116.82153 23193 ft 367 kts 276°
2026-05-03 22:28 33.16156 -116.85145 22824 ft 368 kts 276°
2026-05-03 22:28 33.16601 -116.88181 21965 ft 374 kts 276°
2026-05-03 22:28 33.17046 -116.91231 21099 ft 379 kts 276°
2026-05-03 22:29 33.17499 -116.94324 20604 ft 372 kts 276°
2026-05-03 22:29 33.17939 -116.97328 20254 ft 362 kts 276°
2026-05-03 22:29 33.18370 -117.00280 19716 ft 359 kts 276°
2026-05-03 22:29 33.18786 -117.03163 19226 ft 355 kts 276°
2026-05-03 22:30 33.19207 -117.06085 18697 ft 352 kts 276°
2026-05-03 22:30 33.19623 -117.08969 18125 ft 351 kts 276°
2026-05-03 22:30 33.20027 -117.11779 17653 ft 346 kts 276°
2026-05-03 22:30 33.20433 -117.14601 17131 ft 343 kts 276°
2026-05-03 22:31 33.20836 -117.17408 16626 ft 340 kts 276°
2026-05-03 22:31 33.21235 -117.20195 16123 ft 338 kts 276°
2026-05-03 22:31 33.21626 -117.22931 15625 ft 336 kts 276°
2026-05-03 22:31 33.22018 -117.25674 15136 ft 334 kts 276°
2026-05-03 22:32 33.22408 -117.28413 14635 ft 333 kts 276°
2026-05-03 22:32 33.22798 -117.31155 14104 ft 333 kts 276°
2026-05-03 22:32 33.23187 -117.33838 13769 ft 328 kts 277°
2026-05-03 22:32 33.23612 -117.36596 13635 ft 351 kts 277°
2026-05-03 22:33 33.24071 -117.39501 13438 ft 352 kts 277°
2026-05-03 22:33 33.24520 -117.42330 13227 ft 349 kts 277°
2026-05-03 22:33 33.24971 -117.45189 13014 ft 349 kts 277°
2026-05-03 22:33 33.25417 -117.48044 12810 ft 349 kts 277°
2026-05-03 22:34 33.25885 -117.50892 12600 ft 349 kts 281°
2026-05-03 22:34 33.26652 -117.53626 12393 ft 352 kts 290°
2026-05-03 22:34 33.27802 -117.56215 12181 ft 355 kts 300°
2026-05-03 22:34 33.29152 -117.58681 12004 ft 354 kts 300°
2026-05-03 22:35 33.30499 -117.61164 11987 ft 354 kts 300°
2026-05-03 22:35 33.31840 -117.63653 11987 ft 355 kts 300°
2026-05-03 22:35 33.33162 -117.66113 11925 ft 354 kts 300°
2026-05-03 22:35 33.34499 -117.68601 11509 ft 356 kts 300°
2026-05-03 22:36 33.35850 -117.71119 10822 ft 361 kts 300°
2026-05-03 22:36 33.37180 -117.73595 10554 ft 349 kts 300°
2026-05-03 22:36 33.38456 -117.75964 10346 ft 329 kts 300°
2026-05-03 22:36 33.39660 -117.78202 10105 ft 312 kts 299°
2026-05-03 22:37 33.40831 -117.80389 9647 ft 310 kts 299°
2026-05-03 22:37 33.41987 -117.82552 9239 ft 307 kts 299°
2026-05-03 22:37 33.43136 -117.84702 8926 ft 301 kts 299°
2026-05-03 22:37 33.44241 -117.86770 8827 ft 299 kts 299°
2026-05-03 22:38 33.45367 -117.88881 8744 ft 300 kts 299°
2026-05-03 22:38 33.46494 -117.90991 8654 ft 298 kts 299°
2026-05-03 22:38 33.47835 -117.92902 8562 ft 303 kts 318°
2026-05-03 22:38 33.49652 -117.94142 8474 ft 306 kts 339°
2026-05-03 22:39 33.51653 -117.94996 8374 ft 304 kts 339°
2026-05-03 22:39 33.53652 -117.95850 8106 ft 303 kts 339°
2026-05-03 22:39 33.55609 -117.96693 7799 ft 299 kts 339°
2026-05-03 22:39 33.57520 -117.97521 7651 ft 283 kts 339°
2026-05-03 22:40 33.59321 -117.98303 7492 ft 266 kts 339°
2026-05-03 22:40 33.61022 -117.99044 7265 ft 256 kts 339°
2026-05-03 22:40 33.62681 -117.99754 6972 ft 252 kts 342°
2026-05-03 22:40 33.64349 -118.00355 6988 ft 255 kts 342°
2026-05-03 22:41 33.66042 -118.00968 6934 ft 252 kts 342°
2026-05-03 22:41 33.67718 -118.01576 6631 ft 251 kts 342°
2026-05-03 22:41 33.69395 -118.02188 6319 ft 251 kts 342°
2026-05-03 22:41 33.71044 -118.02856 6008 ft 248 kts 340°
2026-05-03 22:42 33.72647 -118.03556 5691 ft 246 kts 339°
2026-05-03 22:42 33.74249 -118.04263 5390 ft 244 kts 339°
2026-05-03 22:42 33.75838 -118.04957 5112 ft 240 kts 339°
2026-05-03 22:42 33.77400 -118.05633 4994 ft 240 kts 339°
2026-05-03 22:43 33.78987 -118.06315 4961 ft 244 kts 339°
2026-05-03 22:43 33.80565 -118.06992 4956 ft 242 kts 340°
2026-05-03 22:43 33.82108 -118.07651 4949 ft 227 kts 339°
2026-05-03 22:43 33.83543 -118.08264 4977 ft 208 kts 339°
2026-05-03 22:44 33.83993 -118.08456 4953 ft 202 kts 339°
2026-05-03 22:44 33.84781 -118.08793 4985 ft 198 kts 340°
2026-05-03 22:44 33.86127 -118.09372 4982 ft 211 kts 339°
2026-05-03 22:44 33.87501 -118.09961 4978 ft 209 kts 339°
2026-05-03 22:45 33.88864 -118.10551 4830 ft 205 kts 337°
2026-05-03 22:45 33.90059 -118.11365 4652 ft 195 kts 323°
2026-05-03 22:45 33.91175 -118.12299 4348 ft 194 kts 323°
2026-05-03 22:45 33.92283 -118.13208 4013 ft 192 kts 324°
2026-05-03 22:46 33.93379 -118.14102 3764 ft 188 kts 324°
2026-05-03 22:46 33.94437 -118.14964 3595 ft 180 kts 324°
2026-05-03 22:46 33.95378 -118.15961 3585 ft 185 kts 301°
2026-05-03 22:46 33.95767 -118.17352 3508 ft 170 kts 273°
2026-05-03 22:47 33.95743 -118.18749 3315 ft 164 kts 262°
2026-05-03 22:47 33.95591 -118.20095 3111 ft 159 kts 261°
2026-05-03 22:47 33.95457 -118.21393 2901 ft 152 kts 262°
2026-05-03 22:47 33.95332 -118.22616 2732 ft 144 kts 261°
2026-05-03 22:48 33.95213 -118.23789 2536 ft 142 kts 262°
2026-05-03 22:48 33.95093 -118.24960 2353 ft 140 kts 262°
2026-05-03 22:48 33.94975 -118.26112 2167 ft 138 kts 262°
2026-05-03 22:48 33.94859 -118.27257 1984 ft 137 kts 262°
2026-05-03 22:49 33.94744 -118.28381 1799 ft 135 kts 262°
2026-05-03 22:49 33.94632 -118.29483 1629 ft 133 kts 262°
2026-05-03 22:49 33.94517 -118.30605 1446 ft 135 kts 263°
2026-05-03 22:49 33.94406 -118.31699 1254 ft 130 kts 262°
2026-05-03 22:50 33.94296 -118.32768 1072 ft 128 kts 264°
2026-05-03 22:50 33.94191 -118.33823 885 ft 126 kts 263°
2026-05-03 22:50 33.94092 -118.34879 816 ft 123 kts 263°
2026-05-03 22:50 33.93982 -118.35911 598 ft 124 kts 263°
2026-05-03 22:51 33.93861 -118.36926 420 ft 123 kts 264°
2026-05-03 22:51 33.93773 -118.37931 238 ft 117 kts 263°
2026-05-03 22:51 33.93671 -118.38879 127 ft 108 kts 264°
2026-05-03 22:51 33.93605 -118.39553 124 ft 52 kts 263°
2026-05-03 22:52 33.93587 -118.39743 125 ft 0 kts 281°
2026-05-03 22:52 33.93598 -118.39773 121 ft 13 kts 296°
2026-05-03 22:52 33.93634 -118.39886 123 ft 9 kts 290°
2026-05-03 22:52 33.93661 -118.39980 123 ft 14 kts 280°
2026-05-03 22:53 33.93659 -118.40112 125 ft 17 kts 263°
2026-05-03 22:53 33.93644 -118.40264 125 ft 19 kts 265°
2026-05-03 22:53 33.93672 -118.40378 121 ft 11 kts 299°
2026-05-03 22:53 33.93738 -118.40419 124 ft 12 kts 360°
2026-05-03 22:54 33.93797 -118.40436 124 ft 7 kts 326°
2026-05-03 22:54 33.93822 -118.40495 121 ft 9 kts 283°
2026-05-03 22:54 33.93819 -118.40580 123 ft 11 kts 262°
2026-05-03 22:54 33.93808 -118.40681 122 ft 13 kts 264°
2026-05-03 22:55 33.93797 -118.40799 122 ft 15 kts 263°
2026-05-03 22:55 33.93783 -118.40931 125 ft 17 kts 263°
2026-05-03 22:55 33.93769 -118.41069 125 ft 12 kts 263°
2026-05-03 22:55 33.93773 -118.41129 125 ft 5 kts 296°
2026-05-03 22:56 33.93808 -118.41152 123 ft 7 kts 349°
2026-05-03 22:56 33.93872 -118.41163 123 ft 11 kts 353°
2026-05-03 22:56 33.93960 -118.41176 123 ft 15 kts 354°
2026-05-03 22:56 33.94073 -118.41192 123 ft 18 kts 353°
2026-05-03 22:57 33.94203 -118.41211 123 ft 20 kts 352°
2026-05-03 22:57 33.94352 -118.41237 123 ft 23 kts 353°
2026-05-03 22:57 33.94517 -118.41259 123 ft 25 kts 353°
2026-05-03 22:57 33.94649 -118.41277 123 ft 15 kts 359°
2026-05-03 22:58 33.94717 -118.41178 121 ft 18 kts 71°
2026-05-03 22:58 33.94735 -118.41068 124 ft 9 kts 82°
2026-05-03 22:58 33.94736 -118.41059 123 ft 0 kts 82°
2026-05-03 22:59 33.94738 -118.41039 125 ft 0 kts 82°
2026-05-03 23:01 33.94742 -118.41007 125 ft 11 kts 82°
2026-05-03 23:01 33.94723 -118.40929 123 ft 4 kts 133°
2026-05-03 23:01 33.94690 -118.40913 122 ft 6 kts 173°
2026-05-03 23:01 33.94651 -118.40900 122 ft 4 kts 147°
2026-05-03 23:02 33.94640 -118.40878 122 ft 6 kts 112°
2026-05-03 23:02 33.94638 -118.40844 124 ft 2 kts 86°
2026-05-03 23:02 33.94638 -118.40834 122 ft 0 kts 88°
2026-05-03 23:05 33.95157 -118.24330 2443 ft 137 kts 262°
2026-05-03 23:05 33.94392 -118.31834 1225 ft 129 kts 262°
2026-05-03 23:06 33.93736 -118.38292 169 ft 116 kts 263°
2026-05-03 23:06 33.93642 -118.39188 125 ft 88 kts 263°